owner,sensor,date,latitude,longitude,vertical_datum,mass_concentration_of_oxygen_in_sea_water,qcFlag 
LUMCON,ioos:station:LUMCON:101:1,2017-07-01T00:00:00Z,29.2533,-90.6633,98.1,7.2,1111122 
LUMCON,ioos:station:LUMCON:101:1,2017-07-01T00:15:00Z,29.2533,-90.6633,95.6,7.01,1111122 
LUMCON,ioos:station:LUMCON:101:1,2017-07-01T00:30:00Z,29.2533,-90.6633,92.0,6.74,1111122 
LUMCON,ioos:station:LUMCON:101:1,2017-07-01T00:45:00Z,29.2533,-90.6633,87.9,6.44,1111122 
LUMCON,ioos:station:LUMCON:101:1,2017-07-01T01:00:00Z,29.2533,-90.6633,86.4,6.34,1111122 
LUMCON,ioos:station:LUMCON:101:1,2017-07-01T01:15:00Z,29.2533,-90.6633,81.4,5.97,1111122 
LUMCON,ioos:station:LUMCON:101:1,2017-07-01T01:30:00Z,29.2533,-90.6633,74.04,5.43,1111122 
LUMCON,ioos:station:LUMCON:101:1,2017-07-01T01:45:00Z,29.2533,-90.6633,76.9,5.65,1111122 
LUMCON,ioos:station:LUMCON:101:1,2017-07-01T02:00:00Z,29.2533,-90.6633,76.48,5.62,1111122 
LUMCON,ioos:station:LUMCON:101:1,2017-07-01T02:15:00Z,29.2533,-90.6633,81.9,6.02,1111122 
LUMCON,ioos:station:LUMCON:101:1,2017-07-01T02:30:00Z,29.2533,-90.6633,76.24,5.61,1111122 
LUMCON,ioos:station:LUMCON:101:1,2017-07-01T02:45:00Z,29.2533,-90.6633,73.02,5.38,1111122 
LUMCON,ioos:station:LUMCON:101:1,2017-07-01T03:00:00Z,29.2533,-90.6633,73.87,5.44,1111122 
LUMCON,ioos:station:LUMCON:101:1,2017-07-01T03:15:00Z,29.2533,-90.6633,73.08,5.38,1111122 
LUMCON,ioos:station:LUMCON:101:1,2017-07-01T03:30:00Z,29.2533,-90.6633,69.35,5.11,1111122 
LUMCON,ioos:station:LUMCON:101:1,2017-07-01T03:45:00Z,29.2533,-90.6633,68.46,5.04,1111122 
LUMCON,ioos:station:LUMCON:101:1,2017-07-01T04:00:00Z,29.2533,-90.6633,65.75,4.85,1111122 
LUMCON,ioos:station:LUMCON:101:1,2017-07-01T04:15:00Z,29.2533,-90.6633,66.28,4.89,1111122 
LUMCON,ioos:station:LUMCON:101:1,2017-07-01T04:30:00Z,29.2533,-90.6633,56.69,4.19,1111122 
LUMCON,ioos:station:LUMCON:101:1,2017-07-01T04:45:00Z,29.2533,-90.6633,61.11,4.51,1111122 
LUMCON,ioos:station:LUMCON:101:1,2017-07-01T05:00:00Z,29.2533,-90.6633,56.92,4.2,1111122 
LUMCON,ioos:station:LUMCON:101:1,2017-07-01T05:15:00Z,29.2533,-90.6633,55.14,4.08,1111122 
LUMCON,ioos:station:LUMCON:101:1,2017-07-01T05:30:00Z,29.2533,-90.6633,57.43,4.25,1111122 
LUMCON,ioos:station:LUMCON:101:1,2017-07-01T05:45:00Z,29.2533,-90.6633,62.65,4.65,1111122 
LUMCON,ioos:station:LUMCON:101:1,2017-07-01T06:00:00Z,29.2533,-90.6633,52.54,3.9,1111122 
LUMCON,ioos:station:LUMCON:101:1,2017-07-01T06:15:00Z,29.2533,-90.6633,54.61,4.05,1111122 
LUMCON,ioos:station:LUMCON:101:1,2017-07-01T06:30:00Z,29.2533,-90.6633,53.99,4.02,1111122 
LUMCON,ioos:station:LUMCON:101:1,2017-07-01T06:45:00Z,29.2533,-90.6633,48.44,3.6,1111122 
LUMCON,ioos:station:LUMCON:101:1,2017-07-01T07:00:00Z,29.2533,-90.6633,52.09,3.89,1111122 
LUMCON,ioos:station:LUMCON:101:1,2017-07-01T07:15:00Z,29.2533,-90.6633,50.96,3.83,1111122 
LUMCON,ioos:station:LUMCON:101:1,2017-07-01T07:30:00Z,29.2533,-90.6633,52.56,3.95,1111122 
LUMCON,ioos:station:LUMCON:101:1,2017-07-01T07:45:00Z,29.2533,-90.6633,56.36,4.26,1111122 
LUMCON,ioos:station:LUMCON:101:1,2017-07-01T08:00:00Z,29.2533,-90.6633,55.96,4.24,1111122 
LUMCON,ioos:station:LUMCON:101:1,2017-07-01T08:15:00Z,29.2533,-90.6633,52.49,3.98,1111122 
LUMCON,ioos:station:LUMCON:101:1,2017-07-01T08:30:00Z,29.2533,-90.6633,57.48,4.37,1111122 
LUMCON,ioos:station:LUMCON:101:1,2017-07-01T08:45:00Z,29.2533,-90.6633,68.42,5.2,1111122 
LUMCON,ioos:station:LUMCON:101:1,2017-07-01T09:00:00Z,29.2533,-90.6633,67.98,5.15,1111122 
LUMCON,ioos:station:LUMCON:101:1,2017-07-01T09:15:00Z,29.2533,-90.6633,63.13,4.78,1111122 
LUMCON,ioos:station:LUMCON:101:1,2017-07-01T09:30:00Z,29.2533,-90.6633,71.23,5.41,1111122 
LUMCON,ioos:station:LUMCON:101:1,2017-07-01T09:45:00Z,29.2533,-90.6633,68.37,5.2,1111122 
LUMCON,ioos:station:LUMCON:101:1,2017-07-01T10:00:00Z,29.2533,-90.6633,70.89,5.4,1111122 
LUMCON,ioos:station:LUMCON:101:1,2017-07-01T10:15:00Z,29.2533,-90.6633,66.22,5.05,1111122 
LUMCON,ioos:station:LUMCON:101:1,2017-07-01T10:30:00Z,29.2533,-90.6633,57.29,4.37,1111122 
LUMCON,ioos:station:LUMCON:101:1,2017-07-01T10:45:00Z,29.2533,-90.6633,66.81,5.09,1111122 
LUMCON,ioos:station:LUMCON:101:1,2017-07-01T11:00:00Z,29.2533,-90.6633,67.5,5.15,1111122 
LUMCON,ioos:station:LUMCON:101:1,2017-07-01T11:15:00Z,29.2533,-90.6633,66.57,5.08,1111122 
LUMCON,ioos:station:LUMCON:101:1,2017-07-01T11:30:00Z,29.2533,-90.6633,54.76,4.18,1111122 
LUMCON,ioos:station:LUMCON:101:1,2017-07-01T11:45:00Z,29.2533,-90.6633,63.34,4.82,1111122 
LUMCON,ioos:station:LUMCON:101:1,2017-07-01T12:00:00Z,29.2533,-90.6633,61.99,4.72,1111122 
LUMCON,ioos:station:LUMCON:101:1,2017-07-01T12:15:00Z,29.2533,-90.6633,63.07,4.8,1111122 
LUMCON,ioos:station:LUMCON:101:1,2017-07-01T12:30:00Z,29.2533,-90.6633,64.01,4.88,1111122 
LUMCON,ioos:station:LUMCON:101:1,2017-07-01T12:45:00Z,29.2533,-90.6633,61.92,4.72,1111122 
LUMCON,ioos:station:LUMCON:101:1,2017-07-01T13:00:00Z,29.2533,-90.6633,57.87,4.42,1111122 
LUMCON,ioos:station:LUMCON:101:1,2017-07-01T13:15:00Z,29.2533,-90.6633,60.32,4.61,1111122 
LUMCON,ioos:station:LUMCON:101:1,2017-07-01T13:30:00Z,29.2533,-90.6633,61.68,4.71,1111122 
LUMCON,ioos:station:LUMCON:101:1,2017-07-01T13:45:00Z,29.2533,-90.6633,59.14,4.51,1111122 
LUMCON,ioos:station:LUMCON:101:1,2017-07-01T14:00:00Z,29.2533,-90.6633,63.29,4.83,1111122 
LUMCON,ioos:station:LUMCON:101:1,2017-07-01T14:15:00Z,29.2533,-90.6633,64.31,4.89,1111122 
LUMCON,ioos:station:LUMCON:101:1,2017-07-01T14:30:00Z,29.2533,-90.6633,62.07,4.71,1111122 
LUMCON,ioos:station:LUMCON:101:1,2017-07-01T14:45:00Z,29.2533,-90.6633,61.26,4.64,1111122 
LUMCON,ioos:station:LUMCON:101:1,2017-07-01T15:00:00Z,29.2533,-90.6633,58.2,4.41,1111122 
LUMCON,ioos:station:LUMCON:101:1,2017-07-01T15:15:00Z,29.2533,-90.6633,59.09,4.47,1111122 
LUMCON,ioos:station:LUMCON:101:1,2017-07-01T15:30:00Z,29.2533,-90.6633,59.65,4.51,1111122 
LUMCON,ioos:station:LUMCON:101:1,2017-07-01T15:45:00Z,29.2533,-90.6633,60.48,4.57,1111122 
LUMCON,ioos:station:LUMCON:101:1,2017-07-01T16:00:00Z,29.2533,-90.6633,52.62,3.98,1111122 
LUMCON,ioos:station:LUMCON:101:1,2017-07-01T16:15:00Z,29.2533,-90.6633,55.38,4.19,1111122 
LUMCON,ioos:station:LUMCON:101:1,2017-07-01T16:30:00Z,29.2533,-90.6633,49.83,3.77,1111122 
LUMCON,ioos:station:LUMCON:101:1,2017-07-01T16:45:00Z,29.2533,-90.6633,57.97,4.38,1111122 
LUMCON,ioos:station:LUMCON:101:1,2017-07-01T17:00:00Z,29.2533,-90.6633,54.85,4.14,1111122 
LUMCON,ioos:station:LUMCON:101:1,2017-07-01T17:15:00Z,29.2533,-90.6633,57.87,4.37,1111122 
LUMCON,ioos:station:LUMCON:101:1,2017-07-01T17:30:00Z,29.2533,-90.6633,57.1,4.31,1111122 
LUMCON,ioos:station:LUMCON:101:1,2017-07-01T17:45:00Z,29.2533,-90.6633,70.09,5.24,1111122 
LUMCON,ioos:station:LUMCON:101:1,2017-07-01T18:00:00Z,29.2533,-90.6633,70.17,5.25,1111122 
LUMCON,ioos:station:LUMCON:101:1,2017-07-01T18:15:00Z,29.2533,-90.6633,84.8,6.27,1111122 
LUMCON,ioos:station:LUMCON:101:1,2017-07-01T18:30:00Z,29.2533,-90.6633,86.1,6.35,1111122 
LUMCON,ioos:station:LUMCON:101:1,2017-07-01T18:45:00Z,29.2533,-90.6633,86.0,6.33,1111122 
LUMCON,ioos:station:LUMCON:101:1,2017-07-01T19:00:00Z,29.2533,-90.6633,86.4,6.35,1111122 
LUMCON,ioos:station:LUMCON:101:1,2017-07-01T19:15:00Z,29.2533,-90.6633,83.2,6.12,1111122 
LUMCON,ioos:station:LUMCON:101:1,2017-07-01T19:30:00Z,29.2533,-90.6633,86.1,6.32,1111122 
LUMCON,ioos:station:LUMCON:101:1,2017-07-01T19:45:00Z,29.2533,-90.6633,86.0,6.31,1111122 
LUMCON,ioos:station:LUMCON:101:1,2017-07-01T20:00:00Z,29.2533,-90.6633,98.3,7.13,1111122 
LUMCON,ioos:station:LUMCON:101:1,2017-07-01T20:15:00Z,29.2533,-90.6633,98.0,7.09,1111122 
LUMCON,ioos:station:LUMCON:101:1,2017-07-01T20:30:00Z,29.2533,-90.6633,103.9,7.48,1111122 
LUMCON,ioos:station:LUMCON:101:1,2017-07-01T20:45:00Z,29.2533,-90.6633,102.9,7.41,1111122 
LUMCON,ioos:station:LUMCON:101:1,2017-07-01T21:00:00Z,29.2533,-90.6633,99.8,7.19,1111122 
LUMCON,ioos:station:LUMCON:101:1,2017-07-01T21:15:00Z,29.2533,-90.6633,102.1,7.34,1111122 
LUMCON,ioos:station:LUMCON:101:1,2017-07-01T21:30:00Z,29.2533,-90.6633,101.5,7.28,1111122 
LUMCON,ioos:station:LUMCON:101:1,2017-07-01T21:45:00Z,29.2533,-90.6633,101.7,7.27,1111122 
LUMCON,ioos:station:LUMCON:101:1,2017-07-01T22:00:00Z,29.2533,-90.6633,101.1,7.23,1111122 
LUMCON,ioos:station:LUMCON:101:1,2017-07-01T22:15:00Z,29.2533,-90.6633,104.2,7.43,1111122 
LUMCON,ioos:station:LUMCON:101:1,2017-07-01T22:30:00Z,29.2533,-90.6633,104.2,7.43,1111122 
LUMCON,ioos:station:LUMCON:101:1,2017-07-01T22:45:00Z,29.2533,-90.6633,102.0,7.26,1111122 
LUMCON,ioos:station:LUMCON:101:1,2017-07-01T23:00:00Z,29.2533,-90.6633,101.3,7.21,1111122 
LUMCON,ioos:station:LUMCON:101:1,2017-07-01T23:15:00Z,29.2533,-90.6633,99.7,7.1,1111122 
LUMCON,ioos:station:LUMCON:101:1,2017-07-01T23:30:00Z,29.2533,-90.6633,99.0,7.04,1111122 
LUMCON,ioos:station:LUMCON:101:1,2017-07-01T23:45:00Z,29.2533,-90.6633,97.0,6.92,1111122 
LUMCON,ioos:station:LUMCON:101:1,2017-07-02T00:00:00Z,29.2533,-90.6633,95.2,6.78,1111122 
LUMCON,ioos:station:LUMCON:101:1,2017-07-02T00:15:00Z,29.2533,-90.6633,91.3,6.52,1111122 
LUMCON,ioos:station:LUMCON:101:1,2017-07-02T00:30:00Z,29.2533,-90.6633,90.9,6.5,1111122 
LUMCON,ioos:station:LUMCON:101:1,2017-07-02T00:45:00Z,29.2533,-90.6633,87.7,6.27,1111122 
LUMCON,ioos:station:LUMCON:101:1,2017-07-02T01:00:00Z,29.2533,-90.6633,88.9,6.36,1111122 
LUMCON,ioos:station:LUMCON:101:1,2017-07-02T01:15:00Z,29.2533,-90.6633,86.1,6.16,1111122 
LUMCON,ioos:station:LUMCON:101:1,2017-07-02T01:30:00Z,29.2533,-90.6633,85.6,6.13,1111122 
LUMCON,ioos:station:LUMCON:101:1,2017-07-02T01:45:00Z,29.2533,-90.6633,84.9,6.09,1111122 
LUMCON,ioos:station:LUMCON:101:1,2017-07-02T02:00:00Z,29.2533,-90.6633,83.7,6.0,1111122 
LUMCON,ioos:station:LUMCON:101:1,2017-07-02T02:15:00Z,29.2533,-90.6633,78.05,5.6,1111122 
LUMCON,ioos:station:LUMCON:101:1,2017-07-02T02:30:00Z,29.2533,-90.6633,79.65,5.71,1111122 
LUMCON,ioos:station:LUMCON:101:1,2017-07-02T02:45:00Z,29.2533,-90.6633,68.02,4.88,1111122 
LUMCON,ioos:station:LUMCON:101:1,2017-07-02T03:00:00Z,29.2533,-90.6633,66.57,4.78,1111122 
LUMCON,ioos:station:LUMCON:101:1,2017-07-02T03:15:00Z,29.2533,-90.6633,77.02,5.54,1111122 
LUMCON,ioos:station:LUMCON:101:1,2017-07-02T03:30:00Z,29.2533,-90.6633,74.42,5.39,1111122 
LUMCON,ioos:station:LUMCON:101:1,2017-07-02T03:45:00Z,29.2533,-90.6633,77.6,5.62,1111122 
LUMCON,ioos:station:LUMCON:101:1,2017-07-02T04:00:00Z,29.2533,-90.6633,77.12,5.61,1111122 
LUMCON,ioos:station:LUMCON:101:1,2017-07-02T04:15:00Z,29.2533,-90.6633,68.79,5.01,1111122 
LUMCON,ioos:station:LUMCON:101:1,2017-07-02T04:30:00Z,29.2533,-90.6633,74.54,5.44,1111122 
LUMCON,ioos:station:LUMCON:101:1,2017-07-02T04:45:00Z,29.2533,-90.6633,68.96,5.04,1111122 
LUMCON,ioos:station:LUMCON:101:1,2017-07-02T05:00:00Z,29.2533,-90.6633,72.13,5.27,1111122 
LUMCON,ioos:station:LUMCON:101:1,2017-07-02T05:15:00Z,29.2533,-90.6633,65.84,4.84,1111122 
LUMCON,ioos:station:LUMCON:101:1,2017-07-02T05:30:00Z,29.2533,-90.6633,70.24,5.12,1111122 
LUMCON,ioos:station:LUMCON:101:1,2017-07-02T05:45:00Z,29.2533,-90.6633,71.35,5.2,1111122 
LUMCON,ioos:station:LUMCON:101:1,2017-07-02T06:00:00Z,29.2533,-90.6633,69.98,5.11,1111122 
LUMCON,ioos:station:LUMCON:101:1,2017-07-02T06:15:00Z,29.2533,-90.6633,68.34,4.99,1111122 
LUMCON,ioos:station:LUMCON:101:1,2017-07-02T06:30:00Z,29.2533,-90.6633,68.58,5.02,1111122 
LUMCON,ioos:station:LUMCON:101:1,2017-07-02T06:45:00Z,29.2533,-90.6633,60.88,4.46,1111122 
LUMCON,ioos:station:LUMCON:101:1,2017-07-02T07:00:00Z,29.2533,-90.6633,60.44,4.43,1111122 
LUMCON,ioos:station:LUMCON:101:1,2017-07-02T07:15:00Z,29.2533,-90.6633,55.71,4.09,1111122 
LUMCON,ioos:station:LUMCON:101:1,2017-07-02T07:30:00Z,29.2533,-90.6633,55.38,4.07,1111122 
LUMCON,ioos:station:LUMCON:101:1,2017-07-02T07:45:00Z,29.2533,-90.6633,57.75,4.24,1111122 
LUMCON,ioos:station:LUMCON:101:1,2017-07-02T08:00:00Z,29.2533,-90.6633,47.68,3.51,1111122 
LUMCON,ioos:station:LUMCON:101:1,2017-07-02T08:15:00Z,29.2533,-90.6633,56.33,4.14,1111122 
LUMCON,ioos:station:LUMCON:101:1,2017-07-02T08:30:00Z,29.2533,-90.6633,46.05,3.38,1111122 
LUMCON,ioos:station:LUMCON:101:1,2017-07-02T08:45:00Z,29.2533,-90.6633,53.5,3.95,1111122 
LUMCON,ioos:station:LUMCON:101:1,2017-07-02T09:00:00Z,29.2533,-90.6633,55.0,4.07,1111122 
LUMCON,ioos:station:LUMCON:101:1,2017-07-02T09:15:00Z,29.2533,-90.6633,61.45,4.56,1111122 
LUMCON,ioos:station:LUMCON:101:1,2017-07-02T09:30:00Z,29.2533,-90.6633,53.92,3.99,1111122 
LUMCON,ioos:station:LUMCON:101:1,2017-07-02T09:45:00Z,29.2533,-90.6633,65.54,4.88,1111122 
LUMCON,ioos:station:LUMCON:101:1,2017-07-02T10:00:00Z,29.2533,-90.6633,60.45,4.49,1111122 
LUMCON,ioos:station:LUMCON:101:1,2017-07-02T10:15:00Z,29.2533,-90.6633,54.13,4.02,1111122 
LUMCON,ioos:station:LUMCON:101:1,2017-07-02T10:30:00Z,29.2533,-90.6633,60.88,4.54,1111122 
LUMCON,ioos:station:LUMCON:101:1,2017-07-02T10:45:00Z,29.2533,-90.6633,52.1,3.87,1111122 
LUMCON,ioos:station:LUMCON:101:1,2017-07-02T11:00:00Z,29.2533,-90.6633,61.94,4.63,1111122 
LUMCON,ioos:station:LUMCON:101:1,2017-07-02T11:15:00Z,29.2533,-90.6633,54.13,4.03,1111122 
LUMCON,ioos:station:LUMCON:101:1,2017-07-02T11:30:00Z,29.2533,-90.6633,50.45,3.75,1111122 
LUMCON,ioos:station:LUMCON:101:1,2017-07-02T11:45:00Z,29.2533,-90.6633,49.1,3.66,1111122 
LUMCON,ioos:station:LUMCON:101:1,2017-07-02T12:00:00Z,29.2533,-90.6633,56.94,4.26,1111122 
LUMCON,ioos:station:LUMCON:101:1,2017-07-02T12:15:00Z,29.2533,-90.6633,56.03,4.2,1111122 
LUMCON,ioos:station:LUMCON:101:1,2017-07-02T12:30:00Z,29.2533,-90.6633,60.37,4.53,1111122 
LUMCON,ioos:station:LUMCON:101:1,2017-07-02T12:45:00Z,29.2533,-90.6633,62.9,4.73,1111122 
LUMCON,ioos:station:LUMCON:101:1,2017-07-02T13:00:00Z,29.2533,-90.6633,62.92,4.74,1111122 
LUMCON,ioos:station:LUMCON:101:1,2017-07-02T13:15:00Z,29.2533,-90.6633,66.0,4.97,1111122 
LUMCON,ioos:station:LUMCON:101:1,2017-07-02T13:30:00Z,29.2533,-90.6633,62.99,4.75,1111122 
LUMCON,ioos:station:LUMCON:101:1,2017-07-02T13:45:00Z,29.2533,-90.6633,53.04,3.99,1111122 
LUMCON,ioos:station:LUMCON:101:1,2017-07-02T14:00:00Z,29.2533,-90.6633,56.09,4.22,1111122 
LUMCON,ioos:station:LUMCON:101:1,2017-07-02T14:15:00Z,29.2533,-90.6633,50.67,3.82,1111122 
LUMCON,ioos:station:LUMCON:101:1,2017-07-02T14:30:00Z,29.2533,-90.6633,42.68,3.21,1111122 
LUMCON,ioos:station:LUMCON:101:1,2017-07-02T14:45:00Z,29.2533,-90.6633,53.33,4.01,1111122 
LUMCON,ioos:station:LUMCON:101:1,2017-07-02T15:00:00Z,29.2533,-90.6633,60.13,4.53,1111122 
LUMCON,ioos:station:LUMCON:101:1,2017-07-02T15:15:00Z,29.2533,-90.6633,63.2,4.75,1111122 
LUMCON,ioos:station:LUMCON:101:1,2017-07-02T15:30:00Z,29.2533,-90.6633,72.31,5.4,1111122 
LUMCON,ioos:station:LUMCON:101:1,2017-07-02T15:45:00Z,29.2533,-90.6633,70.52,5.27,1111122 
LUMCON,ioos:station:LUMCON:101:1,2017-07-02T16:00:00Z,29.2533,-90.6633,76.84,5.71,1111122 
LUMCON,ioos:station:LUMCON:101:1,2017-07-02T16:15:00Z,29.2533,-90.6633,75.73,5.63,1111122 
LUMCON,ioos:station:LUMCON:101:1,2017-07-02T16:30:00Z,29.2533,-90.6633,76.91,5.7,1111122 
LUMCON,ioos:station:LUMCON:101:1,2017-07-02T16:45:00Z,29.2533,-90.6633,77.22,5.7,1111122 
LUMCON,ioos:station:LUMCON:101:1,2017-07-02T17:00:00Z,29.2533,-90.6633,83.6,6.14,1111122 
LUMCON,ioos:station:LUMCON:101:1,2017-07-02T17:15:00Z,29.2533,-90.6633,84.9,6.21,1111122 
LUMCON,ioos:station:LUMCON:101:1,2017-07-02T17:30:00Z,29.2533,-90.6633,87.9,6.42,1111122 
LUMCON,ioos:station:LUMCON:101:1,2017-07-02T17:45:00Z,29.2533,-90.6633,93.9,6.83,1111122 
LUMCON,ioos:station:LUMCON:101:1,2017-07-02T18:00:00Z,29.2533,-90.6633,93.8,6.79,1111122 
LUMCON,ioos:station:LUMCON:101:1,2017-07-02T18:15:00Z,29.2533,-90.6633,93.4,6.74,1111122 
LUMCON,ioos:station:LUMCON:101:1,2017-07-02T18:30:00Z,29.2533,-90.6633,95.0,6.82,1111122 
LUMCON,ioos:station:LUMCON:101:1,2017-07-02T18:45:00Z,29.2533,-90.6633,96.5,6.91,1111122 
LUMCON,ioos:station:LUMCON:101:1,2017-07-02T19:00:00Z,29.2533,-90.6633,97.9,6.98,1111122 
LUMCON,ioos:station:LUMCON:101:1,2017-07-02T19:15:00Z,29.2533,-90.6633,98.2,6.99,1111122 
LUMCON,ioos:station:LUMCON:101:1,2017-07-02T19:30:00Z,29.2533,-90.6633,97.8,6.94,1111122 
LUMCON,ioos:station:LUMCON:101:1,2017-07-02T19:45:00Z,29.2533,-90.6633,99.8,7.06,1111122 
LUMCON,ioos:station:LUMCON:101:1,2017-07-02T20:00:00Z,29.2533,-90.6633,99.1,7.0,1111122 
LUMCON,ioos:station:LUMCON:101:1,2017-07-02T20:15:00Z,29.2533,-90.6633,99.8,7.05,1111122 
LUMCON,ioos:station:LUMCON:101:1,2017-07-02T20:30:00Z,29.2533,-90.6633,99.7,7.03,1111122 
LUMCON,ioos:station:LUMCON:101:1,2017-07-02T20:45:00Z,29.2533,-90.6633,100.3,7.08,1111122 
LUMCON,ioos:station:LUMCON:101:1,2017-07-02T21:00:00Z,29.2533,-90.6633,98.4,6.94,1111122 
LUMCON,ioos:station:LUMCON:101:1,2017-07-02T21:15:00Z,29.2533,-90.6633,97.9,6.89,1111122 
LUMCON,ioos:station:LUMCON:101:1,2017-07-02T21:30:00Z,29.2533,-90.6633,97.4,6.85,1111122 
LUMCON,ioos:station:LUMCON:101:1,2017-07-02T21:45:00Z,29.2533,-90.6633,97.5,6.86,1111122 
LUMCON,ioos:station:LUMCON:101:1,2017-07-02T22:00:00Z,29.2533,-90.6633,96.7,6.8,1111122 
LUMCON,ioos:station:LUMCON:101:1,2017-07-02T22:15:00Z,29.2533,-90.6633,97.0,6.83,1111122 
LUMCON,ioos:station:LUMCON:101:1,2017-07-02T22:30:00Z,29.2533,-90.6633,96.5,6.79,1111122 
LUMCON,ioos:station:LUMCON:101:1,2017-07-02T22:45:00Z,29.2533,-90.6633,97.0,6.82,1111122 
LUMCON,ioos:station:LUMCON:101:1,2017-07-02T23:00:00Z,29.2533,-90.6633,95.4,6.7,1111122 
LUMCON,ioos:station:LUMCON:101:1,2017-07-02T23:15:00Z,29.2533,-90.6633,96.6,6.79,1111122 
LUMCON,ioos:station:LUMCON:101:1,2017-07-02T23:30:00Z,29.2533,-90.6633,96.3,6.78,1111122 
LUMCON,ioos:station:LUMCON:101:1,2017-07-02T23:45:00Z,29.2533,-90.6633,94.9,6.68,1111122 
LUMCON,ioos:station:LUMCON:101:1,2017-07-03T00:00:00Z,29.2533,-90.6633,93.2,6.56,1111122 
LUMCON,ioos:station:LUMCON:101:1,2017-07-03T00:15:00Z,29.2533,-90.6633,91.7,6.45,1111122 
LUMCON,ioos:station:LUMCON:101:1,2017-07-03T00:30:00Z,29.2533,-90.6633,90.7,6.38,1111122 
LUMCON,ioos:station:LUMCON:101:1,2017-07-03T00:45:00Z,29.2533,-90.6633,84.8,5.98,1111122 
LUMCON,ioos:station:LUMCON:101:1,2017-07-03T01:00:00Z,29.2533,-90.6633,82.3,5.81,1111122 
LUMCON,ioos:station:LUMCON:101:1,2017-07-03T01:15:00Z,29.2533,-90.6633,81.2,5.74,1111122 
LUMCON,ioos:station:LUMCON:101:1,2017-07-03T01:30:00Z,29.2533,-90.6633,69.33,4.91,1111122 
LUMCON,ioos:station:LUMCON:101:1,2017-07-03T01:45:00Z,29.2533,-90.6633,73.32,5.2,1111122 
LUMCON,ioos:station:LUMCON:101:1,2017-07-03T02:00:00Z,29.2533,-90.6633,80.5,5.74,1111122 
LUMCON,ioos:station:LUMCON:101:1,2017-07-03T02:15:00Z,29.2533,-90.6633,83.4,5.96,1111122 
LUMCON,ioos:station:LUMCON:101:1,2017-07-03T02:30:00Z,29.2533,-90.6633,82.2,5.87,1111122 
LUMCON,ioos:station:LUMCON:101:1,2017-07-03T02:45:00Z,29.2533,-90.6633,82.9,5.95,1111122 
LUMCON,ioos:station:LUMCON:101:1,2017-07-03T03:00:00Z,29.2533,-90.6633,84.8,6.09,1111122 
LUMCON,ioos:station:LUMCON:101:1,2017-07-03T03:15:00Z,29.2533,-90.6633,86.0,6.21,1111122 
LUMCON,ioos:station:LUMCON:101:1,2017-07-03T03:30:00Z,29.2533,-90.6633,83.7,6.05,1111122 
LUMCON,ioos:station:LUMCON:101:1,2017-07-03T03:45:00Z,29.2533,-90.6633,84.5,6.12,1111122 
LUMCON,ioos:station:LUMCON:101:1,2017-07-03T04:00:00Z,29.2533,-90.6633,82.8,6.01,1111122 
LUMCON,ioos:station:LUMCON:101:1,2017-07-03T04:15:00Z,29.2533,-90.6633,81.7,5.93,1111122 
LUMCON,ioos:station:LUMCON:101:1,2017-07-03T04:30:00Z,29.2533,-90.6633,81.1,5.88,1111122 
LUMCON,ioos:station:LUMCON:101:1,2017-07-03T04:45:00Z,29.2533,-90.6633,81.3,5.89,1111122 
LUMCON,ioos:station:LUMCON:101:1,2017-07-03T05:00:00Z,29.2533,-90.6633,78.06,5.66,1111122 
LUMCON,ioos:station:LUMCON:101:1,2017-07-03T05:15:00Z,29.2533,-90.6633,77.28,5.61,1111122 
LUMCON,ioos:station:LUMCON:101:1,2017-07-03T05:30:00Z,29.2533,-90.6633,79.33,5.76,1111122 
LUMCON,ioos:station:LUMCON:101:1,2017-07-03T05:45:00Z,29.2533,-90.6633,78.43,5.69,1111122 
LUMCON,ioos:station:LUMCON:101:1,2017-07-03T06:00:00Z,29.2533,-90.6633,79.38,5.76,1111122 
LUMCON,ioos:station:LUMCON:101:1,2017-07-03T06:15:00Z,29.2533,-90.6633,77.83,5.66,1111122 
LUMCON,ioos:station:LUMCON:101:1,2017-07-03T06:30:00Z,29.2533,-90.6633,79.37,5.78,1111122 
LUMCON,ioos:station:LUMCON:101:1,2017-07-03T06:45:00Z,29.2533,-90.6633,77.85,5.67,1111122 
LUMCON,ioos:station:LUMCON:101:1,2017-07-03T07:00:00Z,29.2533,-90.6633,75.54,5.51,1111122 
LUMCON,ioos:station:LUMCON:101:1,2017-07-03T07:15:00Z,29.2533,-90.6633,76.7,5.6,1111122 
LUMCON,ioos:station:LUMCON:101:1,2017-07-03T07:30:00Z,29.2533,-90.6633,79.02,5.78,1111122 
LUMCON,ioos:station:LUMCON:101:1,2017-07-03T07:45:00Z,29.2533,-90.6633,77.02,5.64,1111122 
LUMCON,ioos:station:LUMCON:101:1,2017-07-03T08:00:00Z,29.2533,-90.6633,75.92,5.56,1111122 
LUMCON,ioos:station:LUMCON:101:1,2017-07-03T08:15:00Z,29.2533,-90.6633,69.25,5.07,1111122 
LUMCON,ioos:station:LUMCON:101:1,2017-07-03T08:30:00Z,29.2533,-90.6633,69.89,5.12,1111122 
LUMCON,ioos:station:LUMCON:101:1,2017-07-03T08:45:00Z,29.2533,-90.6633,72.15,5.29,1111122 
LUMCON,ioos:station:LUMCON:101:1,2017-07-03T09:00:00Z,29.2533,-90.6633,67.33,4.95,1111122 
LUMCON,ioos:station:LUMCON:101:1,2017-07-03T09:15:00Z,29.2533,-90.6633,71.82,5.28,1111122 
LUMCON,ioos:station:LUMCON:101:1,2017-07-03T09:30:00Z,29.2533,-90.6633,72.39,5.33,1111122 
LUMCON,ioos:station:LUMCON:101:1,2017-07-03T09:45:00Z,29.2533,-90.6633,65.64,4.83,1111122 
LUMCON,ioos:station:LUMCON:101:1,2017-07-03T10:00:00Z,29.2533,-90.6633,74.77,5.5,1111122 
LUMCON,ioos:station:LUMCON:101:1,2017-07-03T10:15:00Z,29.2533,-90.6633,68.66,5.06,1111122 
LUMCON,ioos:station:LUMCON:101:1,2017-07-03T10:30:00Z,29.2533,-90.6633,68.6,5.06,1111122 
LUMCON,ioos:station:LUMCON:101:1,2017-07-03T10:45:00Z,29.2533,-90.6633,59.28,4.38,1111122 
LUMCON,ioos:station:LUMCON:101:1,2017-07-03T11:00:00Z,29.2533,-90.6633,67.78,5.01,1111122 
LUMCON,ioos:station:LUMCON:101:1,2017-07-03T11:15:00Z,29.2533,-90.6633,60.11,4.44,1111122 
LUMCON,ioos:station:LUMCON:101:1,2017-07-03T11:30:00Z,29.2533,-90.6633,60.66,4.49,1111122 
LUMCON,ioos:station:LUMCON:101:1,2017-07-03T11:45:00Z,29.2533,-90.6633,69.45,5.14,1111122 
LUMCON,ioos:station:LUMCON:101:1,2017-07-03T12:00:00Z,29.2533,-90.6633,69.87,5.17,1111122 
LUMCON,ioos:station:LUMCON:101:1,2017-07-03T12:15:00Z,29.2533,-90.6633,67.26,4.98,1111122 
LUMCON,ioos:station:LUMCON:101:1,2017-07-03T12:30:00Z,29.2533,-90.6633,67.54,5.01,1111122 
LUMCON,ioos:station:LUMCON:101:1,2017-07-03T12:45:00Z,29.2533,-90.6633,67.47,5.0,1111122 
LUMCON,ioos:station:LUMCON:101:1,2017-07-03T13:00:00Z,29.2533,-90.6633,65.1,4.83,1111122 
LUMCON,ioos:station:LUMCON:101:1,2017-07-03T13:15:00Z,29.2533,-90.6633,65.72,4.88,1111122 
LUMCON,ioos:station:LUMCON:101:1,2017-07-03T13:30:00Z,29.2533,-90.6633,64.16,4.76,1111122 
LUMCON,ioos:station:LUMCON:101:1,2017-07-03T13:45:00Z,29.2533,-90.6633,60.17,4.46,1111122 
LUMCON,ioos:station:LUMCON:101:1,2017-07-03T14:00:00Z,29.2533,-90.6633,60.53,4.49,1111122 
LUMCON,ioos:station:LUMCON:101:1,2017-07-03T14:15:00Z,29.2533,-90.6633,61.32,4.55,1111122 
LUMCON,ioos:station:LUMCON:101:1,2017-07-03T14:30:00Z,29.2533,-90.6633,62.03,4.59,1111122 
LUMCON,ioos:station:LUMCON:101:1,2017-07-03T14:45:00Z,29.2533,-90.6633,59.43,4.4,1111122 
LUMCON,ioos:station:LUMCON:101:1,2017-07-03T15:00:00Z,29.2533,-90.6633,57.12,4.23,1111122 
LUMCON,ioos:station:LUMCON:101:1,2017-07-03T15:15:00Z,29.2533,-90.6633,58.02,4.3,1111122 
LUMCON,ioos:station:LUMCON:101:1,2017-07-03T15:30:00Z,29.2533,-90.6633,69.6,5.14,1111122 
LUMCON,ioos:station:LUMCON:101:1,2017-07-03T15:45:00Z,29.2533,-90.6633,75.48,5.55,1111122 
LUMCON,ioos:station:LUMCON:101:1,2017-07-03T16:00:00Z,29.2533,-90.6633,72.71,5.35,1111122 
LUMCON,ioos:station:LUMCON:101:1,2017-07-03T16:15:00Z,29.2533,-90.6633,72.35,5.32,1111122 
LUMCON,ioos:station:LUMCON:101:1,2017-07-03T16:30:00Z,29.2533,-90.6633,74.39,5.47,1111122 
LUMCON,ioos:station:LUMCON:101:1,2017-07-03T16:45:00Z,29.2533,-90.6633,75.94,5.57,1111122 
LUMCON,ioos:station:LUMCON:101:1,2017-07-03T17:00:00Z,29.2533,-90.6633,82.6,6.04,1111122 
LUMCON,ioos:station:LUMCON:101:1,2017-07-03T17:15:00Z,29.2533,-90.6633,89.6,6.53,1111122 
LUMCON,ioos:station:LUMCON:101:1,2017-07-03T17:30:00Z,29.2533,-90.6633,93.6,6.8,1111122 